Caro, MI

10:24 AM EDT on September 25, 2016 (GMT -0400)
Caro

Weather History for KCFS - December, 2012

Change the Weather History Date:

Tuesday, December 25, 2012

  Actual Average (KMBS) Record (KMBS)
Temperature  
Mean Temperature 28 °F 25 °F  
Max Temperature 30 °F 31 °F 47 °F (2015)
Min Temperature 26 °F 19 °F -2 °F (2000)
Degree Days  
Heating Degree Days 37    
Month to date heating degree days  
Since 1 July heating degree days  
Cooling Degree Days 0    
Month to date cooling degree days  
Year to date cooling degree days  
Moisture  
Dew Point 22 °F    
Average Humidity 76    
Maximum Humidity 88    
Minimum Humidity 59    
Precipitation  
Precipitation 0.00 in 0.06 in 0.21 in (2005)
Month to date precipitation 1.52  
Year to date precipitation 31.20  
Snow  
Snow 0.00 in - - ()
Month to date snowfall  
Since 1 July snowfall  
Snow Depth -    
Sea Level Pressure  
Sea Level Pressure 30.22 in    
Wind  
Wind Speed 7 mph (North)    
Max Wind Speed 12 mph    
Max Gust Speed -    
Visibility 10 miles    
Events      
T = Trace of Precipitation, MM = Missing Value Source: NWS Daily Summary

Daily Weather History Graph

Daily Weather History Graph

Search for Another Location

Airport or City:

Trip Planner

Search our weather history database for the weather conditions in past years. The results will help you decide how hot, cold, wet, or windy it might be!

Date:

Astronomy

Dec. 25, 2012 Rise Set
Actual Time 8:05 AM EST 5:03 PM EST
Civil Twilight 7:32 AM EST 5:35 PM EST
Nautical Twilight 6:56 AM EST 6:11 PM EST
Astronomical Twilight 6:21 AM EST 6:46 PM EST
Moon 3:11 PM EST 5:35 AM EST
Length of Visible Light 10h 03m
Length of Day
8h 57m
Waxing Gibbous, 93% of the Moon is Illuminated
Dec 25
Waxing Gibbous
Dec 28
Full
Jan 4
Last Quarter
Jan 11
New
Jan 18
First Quarter

Hourly Weather History & Observations

Time (EST) Temp. Windchill Dew Point Humidity Pressure Visibility Wind Dir Wind Speed Gust Speed Precip Events Conditions
12:14 AM 28.4 °F 19.7 °F 25.2 °F 88% 29.99 in 10.0 mi NNW 9.2 mph - N/A   Overcast
12:35 AM 28.8 °F 20.9 °F 25.0 °F 86% 30.00 in 10.0 mi NNW 8.1 mph - N/A   Overcast
12:55 AM 29.1 °F 21.3 °F 25.2 °F 85% 30.00 in 10.0 mi NNW 8.1 mph - N/A   Overcast
1:14 AM 29.1 °F 22.1 °F 25.5 °F 86% 30.01 in 10.0 mi NNW 6.9 mph - N/A   Overcast
1:35 AM 29.1 °F 22.1 °F 25.5 °F 86% 30.02 in 10.0 mi NNW 6.9 mph - N/A   Overcast
1:55 AM 29.3 °F 21.5 °F 25.5 °F 86% 30.03 in 10.0 mi NNW 8.1 mph - N/A   Overcast
2:14 AM 29.3 °F 21.5 °F 25.7 °F 86% 30.03 in 10.0 mi NNW 8.1 mph - N/A   Overcast
2:35 AM 29.3 °F 20.8 °F 25.9 °F 87% 30.04 in 10.0 mi NNW 9.2 mph - N/A   Overcast
2:54 AM 29.1 °F 21.3 °F 25.7 °F 87% 30.06 in 10.0 mi NNW 8.1 mph - N/A   Overcast
3:14 AM 29.1 °F 22.1 °F 25.7 °F 87% 30.07 in 10.0 mi NNW 6.9 mph - N/A   Overcast
3:35 AM 28.8 °F 20.9 °F 25.7 °F 88% 30.07 in 10.0 mi North 8.1 mph - N/A   Overcast
3:54 AM 28.9 °F 22.8 °F 25.7 °F 88% 30.08 in 10.0 mi NNW 5.8 mph - N/A   Overcast
4:14 AM 28.8 °F 21.7 °F 25.5 °F 88% 30.10 in 10.0 mi NNW 6.9 mph - N/A   Overcast
4:35 AM 28.9 °F 21.9 °F 25.7 °F 88% 30.10 in 10.0 mi NNW 6.9 mph - N/A   Overcast
4:54 AM 28.8 °F 21.7 °F 25.5 °F 88% 30.11 in 10.0 mi NNW 6.9 mph - N/A   Overcast
5:15 AM 28.8 °F 20.2 °F 25.5 °F 88% 30.13 in 10.0 mi NNW 9.2 mph - N/A   Overcast
5:35 AM 28.4 °F 19.7 °F 25.3 °F 88% 30.14 in 10.0 mi NNW 9.2 mph - N/A   Overcast
5:54 AM 28.4 °F 20.4 °F 25.0 °F 87% 30.15 in 10.0 mi NNW 8.1 mph - N/A   Overcast
6:15 AM 28.4 °F 19.1 °F 24.6 °F 86% 30.16 in 10.0 mi NNW 10.4 mph - N/A   Overcast
6:35 AM 28.0 °F 18.6 °F 24.3 °F 86% 30.17 in 10.0 mi NNW 10.4 mph - N/A   Overcast
6:54 AM 27.5 °F 18.0 °F 23.9 °F 86% 30.18 in 10.0 mi NNW 10.4 mph - N/A   Overcast
7:15 AM 27.5 °F 18.0 °F 23.5 °F 85% 30.20 in 10.0 mi NNW 10.4 mph - N/A   Overcast
7:35 AM 27.5 °F 18.6 °F 23.0 °F 83% 30.21 in 10.0 mi NNW 9.2 mph - N/A   Overcast
7:54 AM 27.1 °F 17.5 °F 22.1 °F 81% 30.22 in 10.0 mi North 10.4 mph - N/A   Overcast
8:15 AM 27.1 °F 17.5 °F 21.9 °F 81% 30.22 in 10.0 mi North 10.4 mph - N/A   Overcast
8:34 AM 26.8 °F 17.7 °F 21.0 °F 79% 30.22 in 10.0 mi NNW 9.2 mph - N/A   Overcast
8:54 AM 26.6 °F 16.8 °F 20.7 °F 78% 30.23 in 10.0 mi North 10.4 mph - N/A   Overcast
9:15 AM 27.0 °F 18.0 °F 20.5 °F 77% 30.24 in 10.0 mi North 9.2 mph - N/A   Overcast
9:34 AM 27.5 °F 19.3 °F 20.1 °F 74% 30.25 in 10.0 mi NNW 8.1 mph - N/A   Overcast
9:55 AM 27.9 °F 18.4 °F 19.8 °F 72% 30.25 in 10.0 mi North 10.4 mph - N/A   Overcast
10:14 AM 28.2 °F 19.5 °F 19.2 °F 69% 30.26 in 10.0 mi North 9.2 mph - N/A   Overcast
10:35 AM 28.9 °F 20.4 °F 19.6 °F 68% 30.26 in 10.0 mi North 9.2 mph - N/A   Overcast
10:55 AM 28.9 °F 19.2 °F 19.2 °F 67% 30.26 in 10.0 mi North 11.5 mph - N/A   Scattered Clouds
11:14 AM 28.9 °F 19.2 °F 18.7 °F 66% 30.26 in 10.0 mi North 11.5 mph - N/A   Clear
11:35 AM 29.3 °F 20.8 °F 19.4 °F 67% 30.25 in 10.0 mi North 9.2 mph - N/A   Clear
11:54 AM 29.7 °F 20.7 °F 18.7 °F 64% 30.25 in 10.0 mi North 10.4 mph - N/A   Clear
12:14 PM 30.0 °F 21.1 °F 19.4 °F 65% 30.25 in 10.0 mi North 10.4 mph - N/A   Clear
12:35 PM 30.0 °F 21.1 °F 18.1 °F 61% 30.25 in 10.0 mi North 10.4 mph - N/A   Clear
12:54 PM 30.2 °F 21.9 °F 17.8 °F 60% 30.26 in 10.0 mi North 9.2 mph - N/A   Clear
1:15 PM 30.2 °F 22.6 °F 18.1 °F 61% 30.26 in 10.0 mi North 8.1 mph - N/A   Clear
1:35 PM 30.2 °F 24.3 °F 18.1 °F 61% 30.27 in 10.0 mi North 5.8 mph - N/A   Clear
1:54 PM 30.2 °F 23.4 °F 18.0 °F 60% 30.26 in 10.0 mi North 6.9 mph - N/A   Clear
2:15 PM 30.2 °F 25.4 °F 18.3 °F 61% 30.28 in 10.0 mi NNW 4.6 mph - N/A   Clear
2:35 PM 30.7 °F 24.9 °F 17.8 °F 59% 30.28 in 10.0 mi NNW 5.8 mph - N/A   Clear
2:54 PM 30.4 °F 26.9 °F 18.3 °F 61% 30.29 in 10.0 mi NNW 3.5 mph - N/A   Clear
3:15 PM 30.6 °F 25.8 °F 18.7 °F 61% 30.29 in 10.0 mi NNW 4.6 mph - N/A   Scattered Clouds
3:34 PM 29.8 °F 24.9 °F 19.2 °F 65% 30.29 in 10.0 mi NNW 4.6 mph - N/A   Scattered Clouds
3:54 PM 28.8 °F 21.7 °F 19.2 °F 68% 30.29 in 10.0 mi North 6.9 mph - N/A   Scattered Clouds
4:15 PM 28.6 °F 23.5 °F 20.3 °F 71% 30.30 in 10.0 mi NNW 4.6 mph - N/A   Mostly Cloudy
4:34 PM 29.7 °F 24.7 °F 20.3 °F 68% 30.29 in 10.0 mi NNW 4.6 mph - N/A   Overcast
4:55 PM 29.3 °F 25.6 °F 21.7 °F 73% 30.29 in 10.0 mi NNW 3.5 mph - N/A   Overcast
5:14 PM 29.3 °F 24.3 °F 21.2 °F 72% 30.29 in 10.0 mi NNW 4.6 mph - N/A   Overcast
5:34 PM 29.3 °F 24.3 °F 21.2 °F 72% 30.29 in 10.0 mi NNW 4.6 mph - N/A   Overcast
5:55 PM 28.9 °F 23.9 °F 21.7 °F 74% 30.28 in 10.0 mi North 4.6 mph - N/A   Overcast
6:14 PM 28.9 °F - 22.3 °F 76% 30.30 in 10.0 mi Calm Calm - N/A   Overcast
6:34 PM 28.8 °F - 22.6 °F 78% 30.31 in 10.0 mi Calm Calm - N/A   Overcast
6:55 PM 28.9 °F - 23.0 °F 78% 30.32 in 10.0 mi Calm Calm - N/A   Overcast
7:14 PM 28.4 °F 24.6 °F 23.5 °F 82% 30.32 in 10.0 mi North 3.5 mph - N/A   Overcast
7:35 PM 28.4 °F 24.6 °F 23.9 °F 83% 30.33 in 10.0 mi North 3.5 mph - N/A   Overcast
7:55 PM 28.9 °F 23.9 °F 23.4 °F 80% 30.32 in 10.0 mi North 4.6 mph - N/A   Overcast
8:14 PM 29.3 °F 24.3 °F 22.1 °F 75% 30.32 in 10.0 mi North 4.6 mph - N/A   Overcast
8:35 PM 29.3 °F 25.6 °F 22.1 °F 75% 30.33 in 10.0 mi NNE 3.5 mph - N/A   Overcast
8:55 PM 29.3 °F 25.6 °F 21.4 °F 72% 30.32 in 10.0 mi North 3.5 mph - N/A   Overcast
9:14 PM 28.9 °F 25.2 °F 22.6 °F 77% 30.33 in 10.0 mi North 3.5 mph - N/A   Overcast
9:35 PM 29.1 °F 25.4 °F 22.3 °F 76% 30.33 in 10.0 mi North 3.5 mph - N/A   Overcast
9:54 PM 29.1 °F 24.1 °F 22.6 °F 77% 30.32 in 10.0 mi North 4.6 mph - N/A   Overcast
10:14 PM 28.9 °F 22.8 °F 23.0 °F 78% 30.31 in 10.0 mi NNE 5.8 mph - N/A   Overcast
10:35 PM 28.9 °F 22.8 °F 23.5 °F 80% 30.30 in 10.0 mi NNE 5.8 mph - N/A   Overcast
10:54 PM 28.9 °F 25.2 °F 23.7 °F 81% 30.30 in 10.0 mi NNE 3.5 mph - N/A   Overcast
11:14 PM 28.9 °F - 23.5 °F 80% 30.29 in 10.0 mi Calm Calm - N/A   Overcast
11:35 PM 29.3 °F 24.3 °F 22.8 °F 77% 30.29 in 10.0 mi NNE 4.6 mph - N/A   Overcast
11:54 PM 29.7 °F 24.7 °F 22.1 °F 73% 30.30 in 10.0 mi NE 4.6 mph - N/A   Overcast